星链-30205 (STARLINK-30205 )

导读

STARLINK-30205是美国太空探索技术公司星链计划的卫星,于2023年7月20日发射入轨,属于低轨卫星。它承载着为全球提供高速互联网服务的使命,服务覆盖偏远地区与网络基础设施薄弱区域,支撑星链星座通信组网,同时该卫星也在近地轨道参与了星链网络的扩容,提升星座整体服务能力。

基本信息
目录编号:
57408
目录名称:
STARLINK-30205
国际标识:
2023-102E
轨道中心:
EARTH
卫星名称:
星链-30205
卫星全名:
星链-30205 (STARLINK-30205 )
卫星状态:
在轨 (已飞行1142 天)
发射日期:
2023-07-20 UTC
国别 :
美国 (US)
星等 :
--
轨道信息
数据来源 国际轨道数据
星历时间: 2026-09-03T22:25:29+0800
13小时前
查看轨道信息
半长轴: 6850.416km
偏心率: 0.0004473
轨道倾角: 43.004°
近地点辐角 5.145°
升交点赤经 323.468°
平近点角 354.945°
近地点: 469.214km
远地点: 475.344km
周期: 94.045分钟
每日圈数: 15.311839
详细信息
固有亮度:
5
最大亮度:
0.3
卫星平台:
Starlink v2.0 mini
覆盖范围:
全球
运营商:
太空探索技术公司
运营商所在国:
美国
制造商(研发单位):
太空探索技术公司
制造商所在国:
美国
使用方式:
暂无
卫星简介
星链(Starlink)计划是由太空探索技术公司(SpaceX)提出的一个巨型低轨卫星互联网星座项目,计划在2019年至2024年间在太空搭建由约1.2万颗卫星组成的“星链”网络,其中1584颗将部署在地球上空550千米处的近地轨道,并从2020年开始工作。该卫星仍在工作。
2D轨道图
3D轨道图
轨道高度分析图
轨道倾角分析图
轨道综合分析图
查看轨道综合分析图
交会数据列表
事件ID 空间交会对象 最接近时刻(TCA) 交会距离 交会风险概率(CRP) 交会风险指数(CRI) 操作
CDM_260903-123605-740806-904522
2026-09-03T
12:36:38+0000
1.108 km
极远距离
1.789492E-5 中风险 0.6
CDM_260903-062405-740806-518722
2026-09-03T
06:24:47+0000
1.307 km
极远距离
1.026771E-5 中风险 0.55
CDM_260903-234505-740806-755521
2026-09-03T
23:45:41+0000
1.379 km
极远距离
8.69784E-6 低风险 0.54
CDM_260904-213205-740806-935221
2026-09-04T
21:32:43+0000
1.417 km
极远距离
5.388846E-6 低风险 0.5
CDM_260904-092405-740806-770121
2026-09-04T
09:24:03+0000
1.449 km
极远距离
4.994455E-6 低风险 0.49
CDM_260905-151405-740806-830621
2026-09-05T
15:14:13+0000
1.862 km
极远距离
2.610339E-6 低风险 0.43
CDM_260904-233305-740806-790221
2026-09-04T
23:33:19+0000
2.043 km
极远距离
2.564309E-6 低风险 0.43
CDM_260905-020805-740806-890521
2026-09-05T
02:08:52+0000
2.286 km
极远距离
1.95381E-6 低风险 0.41
CDM_260903-062605-740806-415121
2026-09-03T
06:26:16+0000
2.045 km
极远距离
1.81099E-6 低风险 0.4
CDM_260905-131405-740806-877421
2026-09-05T
13:14:59+0000
2.294 km
极远距离
1.391614E-6 低风险 0.38